Tracking 29033 objects as of 22-Jun-2024
HD Live streaming from Space Station
objects crossing your sky now

WESTFORD NEEDLES

Track WESTFORD NEEDLES now!
10-day predictions
WESTFORD NEEDLES is classified as:


NORAD ID: 2949
Int'l Code: 1963-014AS
Perigee: 1,535.7 km
Apogee: 5,517.3 km
Inclination: 85.6 °
Period: 163.3 minutes
Semi major axis: 9897 km
RCS: 0.2138 m2 (medium)
Launch date: May 9, 1963
Source: United States (US)
Launch site: AIR FORCE WESTERN TEST RANGE (AFWTR)
Your satellite tracking list
Your tracking list is empty




NASA's NSSDC Master Catalog

Two Line Element Set (TLE):
1  2949U 63014AS  24172.41188362 -.00001036  00000-0 -49302-1 0  9998
2  2949  85.6499 133.1188 2011383 216.9357 324.2188  8.81686385248918
Source of the keplerian elements: AFSPC